• In Hungary
  • List of Countries
  • For 7 days
  • Water Temperature
  • Satellite Maps
  • Weather Map
  • News
  • Weather Widgets
  • user-avatar
    Login

    Hourly Weather Cervinia

    Today, 22 August, Wednesday

    Time Temperature Precipitation Wind Pressure Humidity
    00:00 +17°C° 0.1 mm 2 mps 675 mmHg 81%
    01:00 +17°C° 0.1 mm 2 mps 675 mmHg 80%
    02:00 +17°C° 0.1 mm 2 mps 674 mmHg 80%
    03:00 +18°C° 0.1 mm 1 mps 674 mmHg 80%
    04:00 +18°C° 0 mm 1 mps 675 mmHg 78%
    05:00 +19°C° 0 mm 1 mps 675 mmHg 77%
    06:00 +19°C° 0 mm 1 mps 675 mmHg 76%
    07:00 +21°C° 0 mm 1 mps 675 mmHg 69%
    08:00 +23°C° 0 mm 1 mps 676 mmHg 62%
    09:00 +25°C° 0 mm 1 mps 676 mmHg 54%
    10:00 +26°C° 0.4 mm 1 mps 676 mmHg 54%
    11:00 +26°C° 0.4 mm 1 mps 676 mmHg 53%
    12:00 +27°C° 0.4 mm 2 mps 676 mmHg 52%
    13:00 +26°C° 1.3 mm 2 mps 676 mmHg 55%
    14:00 +26°C° 1.3 mm 1 mps 675 mmHg 58%
    15:00 +26°C° 1.3 mm 1 mps 675 mmHg 61%
    16:00 +24°C° 1.9 mm 1 mps 675 mmHg 67%
    17:00 +23°C° 1.9 mm 1 mps 674 mmHg 74%
    18:00 +19°C° 1.9 mm 0 mps 674 mmHg 80%
    19:00 +21°C° 1 mm 1 mps 674 mmHg 80%
    20:00 +20°C° 1 mm 1 mps 674 mmHg 81%
    21:00 +19°C° 1 mm 1 mps 674 mmHg 81%
    22:00 +19°C° 0.1 mm 1 mps 674 mmHg 81%
    23:00 +18°C° 0.1 mm 1 mps 674 mmHg 80%

    Tomorrow, 23 August, Thursday

    Time Temperature Precipitation Wind Pressure Humidity
    00:00 +18°C° 0.1 mm 1 mps 674 mmHg 80%
    01:00 +18°C° 0 mm 1 mps 674 mmHg 80%
    02:00 +16°C° 0 mm 1 mps 673 mmHg 80%
    03:00 +16°C° 0 mm 1 mps 673 mmHg 80%
    04:00 +18°C° 0.1 mm 1 mps 673 mmHg 80%
    05:00 +19°C° 0.1 mm 1 mps 673 mmHg 79%
    06:00 +19°C° 0.1 mm 1 mps 674 mmHg 78%
    07:00 +21°C° 0.1 mm 1 mps 674 mmHg 72%
    08:00 +23°C° 0.1 mm 1 mps 674 mmHg 66%
    09:00 +24°C° 0.1 mm 1 mps 674 mmHg 59%
    10:00 +25°C° 0.8 mm 1 mps 674 mmHg 60%
    11:00 +25°C° 0.8 mm 1 mps 674 mmHg 60%
    12:00 +25°C° 0.8 mm 2 mps 673 mmHg 60%
    13:00 +25°C° 1.5 mm 2 mps 673 mmHg 62%
    14:00 +25°C° 1.5 mm 2 mps 673 mmHg 64%
    15:00 +25°C° 1.5 mm 2 mps 673 mmHg 66%
    16:00 +23°C° 1.5 mm 1 mps 672 mmHg 71%
    17:00 +22°C° 1.5 mm 1 mps 672 mmHg 76%
    18:00 +21°C° 1.5 mm 1 mps 672 mmHg 82%
    19:00 +20°C° 0.7 mm 1 mps 672 mmHg 83%
    20:00 +20°C° 0.7 mm 1 mps 672 mmHg 84%
    21:00 +19°C° 0.7 mm 1 mps 672 mmHg 85%
    22:00 +18°C° 0.2 mm 1 mps 672 mmHg 84%
    23:00 +18°C° 0.2 mm 1 mps 671 mmHg 84%

    Day after tomorrow, 24 August, Friday

    Time Temperature Precipitation Wind Pressure Humidity
    00:00 +16°C° 0.2 mm 1 mps 671 mmHg 84%
    01:00 +16°C° 0.2 mm 1 mps 671 mmHg 83%
    02:00 +16°C° 0.2 mm 1 mps 670 mmHg 83%
    03:00 +15°C° 0.2 mm 1 mps 670 mmHg 83%
    04:00 +16°C° 0.5 mm 1 mps 670 mmHg 83%
    05:00 +16°C° 0.5 mm 2 mps 670 mmHg 84%
    06:00 +17°C° 0.5 mm 2 mps 671 mmHg 84%
    07:00 +18°C° 0.3 mm 2 mps 671 mmHg 80%
    08:00 +19°C° 0.3 mm 2 mps 671 mmHg 77%
    09:00 +20°C° 0.3 mm 2 mps 671 mmHg 73%
    10:00 +21°C° 0.4 mm 2 mps 671 mmHg 70%
    11:00 +21°C° 0.4 mm 2 mps 671 mmHg 68%
    12:00 +23°C° 0.4 mm 2 mps 671 mmHg 65%
    13:00 +23°C° 0.9 mm 2 mps 671 mmHg 66%
    14:00 +23°C° 0.9 mm 2 mps 671 mmHg 66%
    15:00 +23°C° 0.9 mm 2 mps 670 mmHg 67%
    16:00 +20°C° 0.8 mm 2 mps 670 mmHg 73%
    17:00 +19°C° 0.8 mm 2 mps 670 mmHg 79%
    18:00 +18°C° 0.8 mm 2 mps 670 mmHg 85%
    19:00 +17°C° 0.3 mm 2 mps 670 mmHg 87%
    20:00 +16°C° 0.3 mm 2 mps 670 mmHg 88%
    21:00 +14°C° 0.3 mm 3 mps 670 mmHg 90%
    22:00 +14°C° 0.1 mm 3 mps 670 mmHg 89%
    23:00 +14°C° 0.1 mm 3 mps 670 mmHg 88%

    25 August, Saturday

    Time Temperature Precipitation Wind Pressure Humidity
    00:00 +13°C° 0.1 mm 3 mps 670 mmHg 87%
    01:00 +13°C° 0.1 mm 3 mps 669 mmHg 86%
    02:00 +13°C° 0.1 mm 3 mps 669 mmHg 85%
    03:00 +13°C° 0.1 mm 3 mps 669 mmHg 85%
    04:00 +12°C° 0.1 mm 3 mps 669 mmHg 84%
    05:00 +12°C° 0.1 mm 3 mps 669 mmHg 84%
    06:00 +12°C° 0.1 mm 3 mps 669 mmHg 83%
    07:00 +13°C° 0 mm 3 mps 669 mmHg 78%
    08:00 +14°C° 0 mm 3 mps 669 mmHg 73%
    09:00 +16°C° 0 mm 2 mps 670 mmHg 67%
    10:00 +16°C° 0 mm 2 mps 669 mmHg 65%
    11:00 +17°C° 0 mm 2 mps 669 mmHg 63%
    12:00 +18°C° 0 mm 2 mps 669 mmHg 60%
    13:00 +17°C° 0 mm 2 mps 669 mmHg 60%
    14:00 +17°C° 0 mm 3 mps 669 mmHg 61%
    15:00 +17°C° 0 mm 3 mps 668 mmHg 61%
    16:00 +16°C° 0 mm 3 mps 668 mmHg 65%
    17:00 +15°C° 0 mm 2 mps 668 mmHg 70%
    18:00 +14°C° 0 mm 2 mps 668 mmHg 74%
    19:00 +13°C° 0 mm 2 mps 668 mmHg 76%
    20:00 +12°C° 0 mm 2 mps 668 mmHg 78%
    21:00 +10°C° 0 mm 2 mps 669 mmHg 80%
    22:00 +10°C° 0 mm 2 mps 669 mmHg 81%
    23:00 +9°C° 0 mm 2 mps 669 mmHg 82%

    26 August, Sunday

    Time Temperature Precipitation Wind Pressure Humidity
    00:00 +8°C° 0 mm 2 mps 669 mmHg 82%
    01:00 +8°C° 0 mm 2 mps 669 mmHg 83%
    02:00 +8°C° 0 mm 2 mps 669 mmHg 83%
    03:00 +7°C° 0 mm 2 mps 669 mmHg 83%
    04:00 +8°C° 0 mm 2 mps 669 mmHg 80%
    05:00 +8°C° 0 mm 2 mps 669 mmHg 76%
    06:00 +9°C° 0 mm 2 mps 669 mmHg 73%
    07:00 +12°C° 0 mm 2 mps 670 mmHg 64%
    08:00 +14°C° 0 mm 2 mps 670 mmHg 55%
    09:00 +16°C° 0 mm 2 mps 670 mmHg 45%
    10:00 +17°C° 0 mm 2 mps 671 mmHg 44%
    11:00 +18°C° 0 mm 2 mps 671 mmHg 43%
    12:00 +19°C° 0 mm 2 mps 671 mmHg 41%
    13:00 +19°C° 0 mm 2 mps 670 mmHg 42%
    14:00 +19°C° 0 mm 2 mps 670 mmHg 42%
    15:00 +19°C° 0 mm 2 mps 670 mmHg 43%
    16:00 +17°C° 0 mm 2 mps 670 mmHg 51%
    17:00 +15°C° 0 mm 1 mps 670 mmHg 60%
    18:00 +14°C° 0 mm 1 mps 670 mmHg 68%
    19:00 +13°C° 0 mm 1 mps 671 mmHg 70%
    20:00 +12°C° 0 mm 1 mps 671 mmHg 72%
    21:00 +11°C° 0 mm 1 mps 671 mmHg 74%
    22:00 +11°C° 0 mm 1 mps 671 mmHg 72%
    23:00 +10°C° 0 mm 1 mps 672 mmHg 70%

    27 August, Monday

    Time Temperature Precipitation Wind Pressure Humidity
    00:00 +10°C° 0 mm 1 mps 672 mmHg 68%
    01:00 +10°C° 0 mm 1 mps 672 mmHg 65%
    02:00 +10°C° 0 mm 1 mps 672 mmHg 61%
    03:00 +10°C° 0 mm 1 mps 672 mmHg 57%
    04:00 +11°C° 0 mm 1 mps 672 mmHg 56%
    05:00 +12°C° 0 mm 1 mps 673 mmHg 54%
    06:00 +13°C° 0 mm 1 mps 673 mmHg 52%
    07:00 +15°C° 0 mm 1 mps 674 mmHg 50%
    08:00 +18°C° 0 mm 1 mps 674 mmHg 47%
    09:00 +20°C° 0 mm 1 mps 675 mmHg 44%
    10:00 +20°C° 0 mm 2 mps 675 mmHg 44%
    11:00 +21°C° 0 mm 2 mps 675 mmHg 44%
    12:00 +23°C° 0 mm 2 mps 675 mmHg 44%
    13:00 +23°C° 0 mm 2 mps 674 mmHg 45%
    14:00 +23°C° 0 mm 2 mps 674 mmHg 47%
    15:00 +23°C° 0 mm 2 mps 674 mmHg 49%
    16:00 +20°C° 0 mm 2 mps 674 mmHg 58%
    17:00 +19°C° 0 mm 1 mps 673 mmHg 68%
    18:00 +16°C° 0 mm 1 mps 673 mmHg 77%
    19:00 +15°C° 0 mm 1 mps 673 mmHg 78%
    20:00 +14°C° 0 mm 1 mps 673 mmHg 79%
    21:00 +13°C° 0 mm 1 mps 674 mmHg 80%
    22:00 +13°C° 0 mm 1 mps 674 mmHg 80%
    23:00 +13°C° 0 mm 1 mps 674 mmHg 80%
    Show more